Probability
0 0 0 0 0 0 0 0 0 0 0 0 0 0 0 0 0 0 0 0 0 0 0 0 0 0 0 0 0 0 0 0 0 0 0 0 0 0 0 0 0 0 0
0 0 0 0 0 0 0 0 0 0 0 0 0 0 0 0 0 0 0 0 0 0 0 0 0 0 0 0 0 0 0 0 0 0 0 0 0 0 0 0 0 0 0
0 0 0 0 0 0 0 0 0 0 0 0 0 0 0 0 0 0 0 0 0 0 0 0 0 0 0 0 0 0 0 0 0 0 0 0 0 0 0 0 0 0 0
0 0 0 0 0 0 0 0 0 0 0 0 0 0 0 0 0 0 0 0 0 0 0 0 0 0 0 0 0 0 0 0 0 0 0 0 0 0 0 0 0 0 0
0 0 0 0 0 0 0 0 0 0 0 0 0 0 0 0 0 0 0 0 0 0 0 0 0 0 0 0 0 0 0 0 0 0 0 0 0 0 0 0 0 0 0
0 0 0 0 0 0 0 0 0 0 0 0 0 0 0 0 0 0 0 0 0 0 0 0 0 0 0 0 0 0 0 0 0 0 0 0 0 0 0 0 0 0 0
0 0 0 0 0 0 0 0 0 0 0 0 0 0 0 0 0 0 0 0 0 0 0 0 0 0 0 0 0 0 0 0 0 0 0 0 0 0 0 0 0 0 0
0 0 0 0 0 0 0 0 0 0 0 0 0 0 0 0 0 0 0 0 0 0 0 0 0 0 0 0 0 0 0 0 0 0 0 0 0 0 0 0 0 0 0
0 0 0 0 0 0 0 0 0 0 0 0 0 0 0 0 0 0 0 0 0 0 0 0 0 0 0 0 0 0 0 0 0 0 0 0 0 0 0 0 0 0 0
0 0 0 0 0 0 0 0 0 0 0 0 0 0 0 0 0 0 0 0 0 0 0 0 0 0 0 0 0 0 0 0 0 0 0 0 0 0 0 0 0 0 0
0 0 0 0 0 0 0 0 0 0 0 0 0 0 0 0 0 0 0 0 0 0 0 0 0 0 0 0 0 0 0 0 0 0 0 0 0 0 0 0 0 0 0
0 0 0 0 0 0 0 0 0 0 0 0 0 0 0 0 0 0 0 0 0 0 0 0 0 0 0 0 0 0 0 0 0 0 0 0 0 0 0 0 0 0 0
0 0 0 0 0 0 0 0 0 0 0 0 0 0 0 0 0 0 0 0 0 0 0 0 0 0 0 0 0 0 0 0 0 0 0 0 0 0 0 0 0 0 0
0 0 0 0 0 0 0 0 0 0 0 0 0 0 0 0 0 0 0 0 0 0 0 0 0 0 0 0 0 0 0 0 0 0 0 0 0 0 0 0 0 0 0
0 0 0 0 0 0 0 0 0 0 0 0 0 0 0 0 0 0 0 0 0 0 0 0 0 0 0 0 0 0 0 0 0 0 0 0 0 0 0 0 0 0 0
0 0 0 0 0 0 0 0 0 0 0 0 0 0 0 0 0 0 0 0 0 0 0 0 0 0 0 0 0 0 0 0 0 0 0 0 0 0 0 0 0 0 0
0 0 0 0 0 0 0 0 0 0 0 0 0 0 0 0 0 0 0 0 0 0 0 0 0 0 0 0 0 0 0 0 0 0 0 0 0 0 0 0 0 0 0
0 0 0 0 0 0 0 0 0 0 0 0 0 0 0 0 0 0 0 0 0 0 0 0 0 0 0 0 0 0 0 0 0 0 0 0 0 0 0 0 0 0 0
0 0 0 0 0 0 0 0 0 0 0 0 0 0 0 0 0 0 0 0 0 0 0 0 0 0 0 0 0 0 0 0 0 0 0 0 0 0 0 0 0 0 0
0 0 0 0 0 0 0 0 0 0 0 0 0 0 0 0 0 0 0 0 0 0 0 0 0 0 0 0 0 0 0 0 0 0 0 0 0 0 0 0 0 0 0
0 0 0 0 0 0 0 0 0 0 0 0 0 0 0 0 0 0 0 0 0 0 0 0 0 0 0 0 0 0 0 0 0 0 0 0 0 0 0 0 0 0 0
0 0 0 0 0 0 0 0 0 0 0 0 0 0 0 0 0 0 0 0 0 0 0 0 0 0 0 0 0 0 0 0 0 0 0 0 0 0 0 0 0 0 0
0 0 0 0 0 0 0 0 0 0 0 0 0 0 0 0 0 0 0 0 0 0 0 0 0 0 0 0 0 0 0 0 0 0 0 0 0 0 0 0 0 0 0
0 0 0 0 0 0 0 0 0 0 0 0 0 0 0 0 0 0 0 0 0 0 0 0 0 0 0 0 0 0 0 0 0 0 0 0 0 0 0 0 0 0 0
0 0 0 0 0 0 0 0 0 0 0 0 0 0 0 0 0 0 0 0 0 0 0 0 0 0 0 0 0 0 0 0 0 0 0 0 0 0 0 0 0 0 0
0 0 0 0 0 0 0 0 0 0 0 0 0 0 0 0 0 0 0 0 0 0 0 0 0 0 0 0 0 0 0 0 0 0 0 0 0 0 0 0 0 0 0
Height
5643 5651 5659 5665 5671 5676 5680 5684 5686 5688 5690 5690 5690 5689 5687 5685 5683 5680 5676 5673 5669 5664 5660 5655 5649 5643 5637 5630 5623 5615 5607 5598 5592 5587 5575 5565 5555 5545 5536 5525 5513 5502 5489
5632 5640 5648 5655 5661 5667 5672 5676 5678 5680 5682 5682 5681 5680 5678 5676 5673 5670 5666 5662 5658 5653 5648 5642 5636 5630 5623 5615 5608 5599 5591 5581 5573 5567 5559 5547 5536 5524 5513 5502 5489 5475 5463
5622 5631 5639 5646 5653 5659 5664 5668 5671 5673 5673 5674 5673 5672 5669 5667 5664 5660 5656 5652 5647 5641 5636 5630 5623 5616 5608 5600 5592 5583 5574 5564 5554 5546 5539 5527 5515 5501 5490 5478 5465 5451 5438
5614 5623 5632 5639 5646 5652 5657 5661 5663 5665 5665 5665 5664 5663 5660 5657 5654 5650 5645 5641 5635 5629 5623 5616 5609 5601 5593 5585 5576 5567 5557 5547 5537 5527 5517 5506 5493 5478 5465 5455 5444 5431 5419
5608 5617 5626 5634 5640 5646 5651 5654 5656 5657 5657 5657 5656 5654 5651 5648 5644 5639 5635 5629 5624 5617 5610 5603 5595 5587 5578 5569 5560 5550 5539 5529 5518 5507 5496 5484 5470 5456 5443 5432 5423 5414 5404
5605 5614 5623 5630 5636 5641 5645 5647 5649 5650 5650 5649 5647 5644 5641 5638 5634 5629 5624 5618 5611 5604 5597 5589 5581 5572 5563 5553 5543 5532 5520 5508 5497 5485 5474 5460 5447 5433 5423 5412 5404 5398 5393
5604 5612 5620 5626 5632 5636 5639 5641 5642 5643 5642 5640 5638 5635 5632 5628 5623 5618 5612 5606 5599 5591 5583 5575 5566 5557 5547 5538 5528 5516 5502 5487 5473 5462 5450 5436 5425 5415 5406 5398 5389 5383 5379
5604 5611 5618 5623 5628 5631 5633 5635 5636 5635 5634 5632 5629 5626 5622 5617 5612 5607 5600 5593 5586 5578 5569 5560 5551 5542 5532 5522 5512 5501 5486 5470 5455 5441 5429 5417 5406 5397 5389 5384 5378 5373 5368
5605 5611 5616 5621 5624 5626 5628 5629 5628 5627 5625 5623 5620 5616 5611 5607 5601 5595 5588 5581 5573 5565 5555 5546 5536 5527 5516 5506 5495 5482 5468 5451 5435 5420 5409 5400 5391 5383 5377 5372 5366 5361 5357
5605 5610 5614 5617 5620 5621 5622 5622 5621 5619 5617 5614 5610 5606 5601 5595 5589 5583 5576 5569 5561 5552 5542 5532 5521 5510 5498 5485 5473 5461 5448 5434 5420 5407 5396 5387 5380 5373 5366 5360 5354 5349 5344
5605 5609 5612 5614 5615 5616 5616 5615 5613 5611 5608 5605 5600 5596 5590 5584 5577 5570 5563 5555 5547 5538 5528 5517 5505 5493 5480 5466 5452 5439 5427 5416 5405 5395 5386 5378 5371 5364 5357 5350 5343 5336 5331
5604 5606 5608 5609 5610 5610 5609 5608 5605 5603 5599 5595 5590 5585 5579 5572 5565 5558 5550 5541 5532 5523 5513 5501 5488 5475 5461 5447 5433 5421 5409 5400 5391 5384 5376 5369 5362 5355 5347 5340 5333 5325 5318
5602 5604 5604 5605 5605 5604 5602 5600 5597 5594 5590 5585 5580 5574 5567 5560 5553 5545 5537 5527 5517 5507 5496 5483 5470 5457 5443 5429 5416 5405 5396 5388 5381 5374 5367 5359 5352 5345 5337 5330 5323 5315 5307
5600 5600 5600 5600 5599 5597 5595 5592 5589 5585 5580 5575 5570 5563 5556 5549 5541 5533 5524 5514 5503 5492 5480 5466 5453 5439 5426 5414 5403 5394 5386 5379 5372 5365 5358 5350 5343 5335 5326 5319 5313 5306 5300
5596 5596 5595 5594 5592 5590 5587 5584 5580 5576 5571 5565 5559 5553 5546 5538 5529 5520 5510 5500 5488 5477 5464 5451 5438 5425 5412 5401 5392 5384 5377 5370 5363 5356 5348 5341 5333 5325 5316 5308 5301 5294 5288
5592 5591 5590 5588 5585 5583 5579 5575 5571 5566 5561 5555 5548 5542 5534 5525 5516 5506 5495 5483 5471 5460 5447 5435 5423 5411 5401 5392 5385 5377 5370 5363 5355 5347 5339 5331 5323 5315 5307 5298 5290 5284 5278
5587 5585 5583 5581 5578 5575 5571 5567 5562 5557 5551 5544 5537 5530 5521 5512 5502 5492 5480 5468 5455 5443 5432 5420 5409 5399 5391 5385 5378 5371 5364 5356 5348 5339 5331 5322 5313 5305 5297 5289 5282 5275 5269
5581 5579 5577 5574 5571 5567 5563 5558 5553 5547 5541 5534 5526 5518 5509 5498 5488 5476 5465 5453 5440 5428 5417 5407 5398 5391 5385 5379 5372 5366 5358 5350 5341 5332 5323 5313 5305 5296 5288 5281 5274 5268 5262
5575 5573 5570 5567 5563 5559 5554 5549 5544 5538 5531 5523 5515 5505 5495 5484 5472 5461 5449 5438 5427 5416 5406 5398 5391 5385 5380 5374 5368 5360 5353 5344 5335 5326 5316 5307 5298 5290 5282 5275 5269 5263 5258
5569 5566 5563 5559 5555 5551 5546 5541 5535 5528 5521 5512 5503 5494 5483 5471 5459 5446 5435 5424 5414 5405 5398 5392 5386 5381 5376 5370 5364 5356 5348 5339 5330 5321 5312 5303 5295 5286 5279 5272 5266 5261 5256
5562 5559 5556 5552 5548 5543 5538 5532 5525 5518 5510 5501 5491 5481 5470 5458 5446 5435 5424 5414 5405 5398 5392 5387 5383 5378 5373 5368 5361 5353 5345 5337 5328 5319 5310 5301 5293 5285 5278 5271 5265 5260 5256
5556 5552 5549 5544 5540 5535 5529 5523 5516 5508 5499 5489 5479 5468 5457 5446 5435 5425 5415 5406 5399 5394 5389 5385 5381 5377 5372 5366 5359 5352 5343 5335 5326 5318 5309 5301 5293 5285 5279 5272 5267 5262 5259
5549 5545 5541 5537 5532 5527 5521 5514 5506 5498 5489 5479 5468 5457 5446 5436 5425 5416 5408 5401 5396 5391 5387 5384 5380 5375 5370 5364 5358 5350 5343 5334 5326 5317 5309 5302 5294 5287 5281 5275 5270 5266 5262
5542 5538 5534 5529 5524 5519 5512 5505 5498 5489 5479 5469 5458 5447 5436 5426 5417 5409 5402 5397 5393 5390 5386 5383 5379 5375 5369 5363 5357 5350 5342 5334 5326 5318 5311 5303 5297 5290 5285 5279 5275 5271 5267
5535 5531 5527 5522 5516 5510 5504 5496 5488 5479 5469 5459 5448 5437 5427 5418 5410 5404 5399 5395 5392 5389 5386 5382 5379 5374 5369 5363 5357 5350 5342 5335 5327 5320 5313 5306 5300 5294 5289 5284 5280 5276 5272
5528 5524 5519 5514 5508 5502 5495 5487 5479 5469 5459 5448 5438 5428 5419 5411 5405 5400 5396 5394 5391 5388 5385 5382 5378 5374 5369 5363 5357 5350 5344 5337 5330 5323 5316 5310 5304 5299 5294 5289 5285 5282 5278
Wind_Speed
51 50 49 48 47 46 45 44 43 41 40 40 40 40 40 41 43 44 45 47 48 49 51 53 55 57 60 62 64 66 68 70 71 71 73 75 77 79 82 85 88 90 91
48 47 47 46 46 45 44 43 41 40 39 39 39 40 40 42 43 45 46 47 49 50 53 55 57 60 62 64 66 68 70 71 73 73 74 76 80 84 87 89 91 91 89
45 44 44 43 43 43 42 41 40 39 39 39 39 40 41 43 44 45 46 48 50 52 54 57 59 62 64 66 68 69 70 72 74 76 77 80 85 89 90 90 89 85 79
41 41 41 40 40 39 39 38 38 38 38 38 38 39 41 43 44 45 46 49 51 54 56 59 61 64 66 67 68 70 72 73 76 79 82 86 89 91 91 86 79 73 65
37 37 37 37 36 36 36 35 36 36 37 37 38 40 41 43 44 45 47 50 53 56 58 61 63 65 67 68 69 71 73 76 80 84 87 90 91 89 83 77 69 60 52
33 33 32 32 32 32 33 33 34 34 35 36 38 40 41 43 44 46 49 52 55 57 60 62 64 66 67 68 70 73 77 82 86 89 91 90 86 80 73 66 58 49 43
29 29 28 29 29 29 30 31 32 33 35 37 38 40 41 43 45 48 51 54 56 59 61 63 64 65 67 69 72 76 82 88 91 92 89 84 77 69 62 54 47 42 40
25 25 25 25 26 26 27 29 31 33 35 36 38 40 42 44 47 50 52 55 58 60 62 63 65 67 69 72 75 80 85 89 89 87 81 74 66 58 52 45 41 40 39
21 21 21 22 23 25 27 29 30 32 34 36 38 40 43 46 48 51 54 56 58 60 61 64 66 69 72 76 80 84 87 86 83 77 70 62 54 49 45 42 41 40 39
17 17 18 20 22 24 25 27 29 32 34 36 38 41 44 47 50 53 55 57 58 59 62 65 69 73 77 81 84 86 84 78 71 64 57 51 47 44 43 43 42 42 41
15 16 17 19 21 23 25 27 29 31 34 36 40 43 46 49 51 54 55 57 58 60 63 67 72 76 80 84 86 83 77 68 60 52 47 45 44 43 43 44 44 44 44
14 15 17 19 20 22 24 26 29 32 35 38 41 44 47 50 51 53 55 57 60 63 67 71 76 80 83 84 81 75 66 57 50 45 43 42 42 42 43 44 44 45 45
13 14 16 17 19 21 24 27 30 34 37 40 42 45 48 50 51 53 56 59 63 67 71 75 78 81 82 78 72 63 54 47 43 42 41 41 42 43 43 43 43 42 42
11 13 15 17 20 23 26 29 33 35 38 41 44 45 47 50 52 54 58 62 66 70 73 76 79 79 75 68 59 51 45 42 41 41 40 41 42 43 43 42 41 40 38
11 14 17 20 23 26 29 32 34 37 40 42 43 45 48 50 53 57 61 65 69 71 74 76 75 71 64 56 47 42 40 39 40 40 41 41 42 42 42 42 41 39 38
14 17 20 23 26 28 31 34 36 38 40 42 44 47 49 53 56 61 65 68 71 73 74 72 68 62 52 43 38 37 38 38 39 40 41 42 42 42 41 41 40 38 36
18 20 23 25 28 30 33 35 37 39 41 43 46 49 52 56 60 64 67 70 72 72 70 65 58 48 40 35 34 35 36 38 39 41 42 42 42 40 39 38 37 35 32
20 23 25 27 30 31 33 35 37 39 42 45 48 51 55 59 63 66 68 70 70 68 62 54 44 36 32 31 32 34 36 38 40 41 42 41 40 38 37 35 33 30 27
23 25 27 29 30 32 34 36 38 41 44 47 51 55 59 62 66 68 68 68 65 59 50 41 33 29 28 29 31 34 37 38 39 40 40 39 38 36 34 32 29 26 23
25 26 28 30 32 33 35 37 40 43 46 50 54 57 61 64 65 66 64 61 56 47 38 31 27 25 26 29 32 34 36 38 38 38 37 36 35 33 31 29 27 23 19
26 27 29 31 33 34 37 39 42 45 49 53 56 59 61 62 62 60 58 53 45 35 29 25 23 23 25 28 31 34 36 37 37 36 35 34 33 31 29 27 24 21 17
27 29 30 32 33 36 38 41 43 47 51 54 56 58 58 58 58 56 51 42 34 27 23 21 20 22 25 28 31 33 34 35 35 34 33 32 31 29 27 25 22 18 16
28 29 31 32 35 37 39 42 45 48 51 54 55 56 57 57 55 49 41 32 25 21 19 18 19 22 25 28 31 33 33 34 33 32 31 30 28 27 25 23 21 19 17
28 30 31 33 36 38 40 43 46 50 53 55 56 56 56 54 49 40 31 23 19 17 16 16 19 22 25 28 30 32 33 33 33 32 31 29 27 26 25 23 21 20 18
29 30 32 35 37 39 42 45 49 52 55 56 56 55 53 48 40 31 22 17 15 14 15 16 19 22 25 27 29 30 31 32 32 31 30 28 27 25 24 22 21 20 19
30 31 34 36 38 41 44 47 51 54 55 56 55 53 48 39 30 23 17 14 13 14 14 16 19 21 24 26 28 29 30 30 30 30 29 27 26 24 23 22 21 20 19
Wind_Direction
239 238 237 237 240 243 246 250 254 259 264 269 274 278 281 284 286 288 290 291 293 294 296 298 300 302 303 304 304 305 305 305 305 306 306 305 305 305 305 305 305 304 303
234 234 234 234 237 241 245 249 254 259 264 269 274 278 282 285 286 288 290 292 294 296 298 300 301 303 304 305 305 306 306 306 306 306 306 306 306 306 307 306 306 305 304
229 229 230 231 235 239 244 249 254 259 265 270 274 278 282 285 287 288 291 293 295 298 300 301 303 304 305 306 306 307 307 307 307 307 308 308 308 308 308 307 306 305 304
222 223 225 229 233 238 243 249 254 260 266 271 276 280 282 285 288 290 292 295 297 299 301 303 304 305 306 306 307 307 307 308 308 308 309 309 309 309 308 307 307 305 303
215 217 221 226 231 237 244 250 256 262 268 273 277 281 284 287 289 292 294 297 299 301 302 304 305 306 307 307 308 308 308 308 309 309 310 310 310 309 308 308 307 305 302
208 212 217 224 231 238 245 252 259 265 271 275 279 282 286 289 291 294 297 299 300 302 304 305 306 307 307 308 309 309 310 310 310 311 311 311 311 310 309 308 307 304 301
200 207 215 224 232 240 248 256 262 268 273 277 281 285 288 291 294 296 298 300 302 304 305 306 306 307 308 309 310 310 311 312 312 312 312 312 311 310 309 309 307 305 303
197 206 217 226 235 245 253 258 263 269 274 279 283 287 290 294 296 298 300 302 304 305 306 307 308 308 309 309 310 311 312 312 312 312 312 312 312 311 311 309 307 305 305
198 210 220 231 241 248 254 260 267 273 278 282 286 290 294 296 298 300 302 304 305 306 307 308 309 309 310 310 311 313 313 313 313 313 313 313 313 312 311 311 310 309 308
202 216 228 237 245 253 261 267 272 277 283 287 291 294 296 299 301 302 304 305 306 307 308 309 310 311 312 312 313 314 314 314 313 313 313 314 314 314 314 313 312 310 309
211 224 233 243 253 260 267 273 279 284 288 291 294 297 299 301 303 305 306 307 308 309 310 311 311 312 313 314 314 315 315 314 314 313 313 313 314 314 313 313 312 311 310
222 234 245 253 261 268 275 281 286 290 293 296 298 300 302 304 305 306 308 309 310 311 312 312 313 313 314 315 316 316 315 315 315 314 314 314 314 314 313 313 312 312 311
239 249 257 265 273 279 284 289 293 295 298 300 301 303 305 306 307 309 310 311 312 313 313 314 314 315 316 316 316 316 316 316 316 316 315 315 314 314 314 314 313 313 312
255 263 270 277 283 288 292 295 297 299 301 303 304 306 307 308 309 310 312 313 313 314 315 315 316 317 317 317 317 317 317 317 317 317 316 316 316 316 316 315 315 313 312
272 279 284 288 291 294 296 299 300 302 304 305 307 308 309 310 311 312 313 314 314 315 315 316 317 318 318 318 318 318 319 319 319 319 319 319 318 318 318 317 317 315 314
288 291 293 295 297 299 300 302 304 305 307 308 309 311 312 313 314 314 315 315 315 316 317 318 319 319 319 319 320 321 322 322 322 322 322 322 321 320 320 319 319 318 316
295 297 298 299 301 302 304 306 307 309 310 311 313 314 315 315 315 316 316 316 317 318 319 320 321 321 322 323 324 325 326 326 326 326 326 325 325 324 323 323 322 321 320
298 300 302 303 304 306 307 309 311 312 313 314 315 316 316 317 317 317 317 318 320 320 321 322 323 324 326 328 329 330 330 330 330 330 330 330 329 329 328 328 328 327 326
301 303 304 306 308 309 311 312 314 315 316 317 318 318 319 319 319 319 320 321 322 323 324 326 327 329 331 333 334 335 335 336 335 335 336 336 335 335 336 336 337 336 335
304 305 307 309 311 312 314 315 316 317 318 319 320 320 320 320 320 321 323 324 324 325 327 329 331 333 336 338 339 340 341 341 341 341 341 342 343 343 344 345 345 346 346
307 308 310 312 313 315 316 317 318 319 320 321 321 321 322 322 323 324 325 326 327 329 330 333 336 339 341 343 345 345 345 346 346 346 347 348 349 350 351 352 354 357 1
309 310 312 314 315 317 318 319 320 322 323 324 324 324 325 326 326 327 328 329 331 332 335 339 342 345 347 348 349 349 350 350 351 352 353 355 356 357 358 1 6 11 16
310 312 314 315 318 319 320 321 323 325 326 326 326 326 326 327 328 329 331 332 334 337 341 345 348 350 352 352 353 354 355 357 358 359 0 2 4 7 10 14 19 24 28
311 313 315 317 319 321 322 323 325 327 327 327 327 327 327 328 329 331 333 335 338 343 347 349 352 354 354 355 356 358 360 2 3 4 6 8 11 15 18 22 26 30 33
312 314 316 319 320 322 323 324 326 327 328 328 327 328 328 330 331 333 335 338 343 347 350 352 354 356 356 357 359 1 3 5 6 8 11 13 16 19 22 26 29 33 34
313 315 318 320 321 323 324 325 327 328 328 328 328 328 330 331 333 334 336 340 344 347 350 353 355 356 357 359 1 3 5 7 9 11 14 16 19 22 26 29 33 35 36